リニア彗星

239P/LINEAR (2019)

English version
Home page
Updated on May 23, 2019

---------------------------------------------------------------------

・ プロフィール

・ 写真集

・ 軌道要素

Epoch 2018 Dec. 28.0 TT = JDT 2458480.5
T 2019 Jan. 10.15946 TT                                 MPCW
q   1.6494744            (2000.0)            P               Q
n   0.10426230     Peri.  220.37820     -0.43066722     -0.88225379
a   4.4707925      Node   255.90828     +0.87031632     -0.35021327
e   0.6310555      Incl.   11.30557     +0.23890428     -0.31460914
P   9.45
From 77 observations 1999 Nov. 14-2018 Oct. 10, mean residual 0".5.

・ 星図

・ 光度変化

        m1 = 12.8 + 5 logΔ + 22.0 log r(t - 27)

---------------------------------------------------------------------

軌道要素はM.P.E.C. 2018-U70に掲載されたものです。
星図はステラナビゲータ Ver.10 (アストロアーツ) で作成したものです。
光度グラフはComet for Windowsで作成したものです。

---------------------------------------------------------------------

Copyright(C) Seiichi Yoshida (comet@aerith.net). All rights reserved.